Home > Weather > Canada > Mount Pearl > Past weeks

Flag for Canada Weather past 2 weeks in Mount Pearl, Newfoundland and Labrador, Canada

28 °F

Heavy snow. Ice fog.

Feels Like: 16 °F
Forecast: 18 / 32 °F
Wind: 17 mph from Southwest

Location: St. John's

Current Time: Dec 1, 2015 at 1:14:00 PM

Latest Report: Dec 1, 2015 at 12:30 PM

Visibility: 0 mi

Pressure: 30.14 "Hg

Humidity: 86%

Dew point: 25 °F

Location of Mount PearlLocation

Historic Weather in Mount Pearl — Graph


Mount Pearl temperature yesterday

Maximum temperature yesterday: 27 °F (at 12:30 AM)
Minimum temperature yesterday: 16 °F (at 9:30 AM)
Average temperature yesterday: 19 °F

Past Weeks' High & Low Weather Summary

High50 °F (Nov 24, 1:30 PM)100% (Nov 16, 12:30 PM)30.98 "Hg (Nov 16, 12:30 PM)
Low16 °F (Nov 30, 9:30 AM)51% (Nov 26, 1:30 PM)29.37 "Hg (Nov 16, 12:30 PM)
Average34 °F85%30.24 "Hg
* Reported Nov 16 11:30 AM — Dec 1 11:30 AM, Mount Pearl, Weather by CustomWeather, © 2015

Note: Actual official high and low records may vary slightly from our data, if they occured in-between our weather recording intervals... More about our weather records


Mount Pearl weather history for previous 24 hours

Time TempWeatherWind HumidityBarometerVisibility
11:30 AM
Tue, Dec 1
30 °FPassing clouds.15 mph75%30.16 "Hg15 mi
10:30 AM27 °FScattered clouds.14 mph69%30.20 "Hg15 mi
9:30 AM23 °FPassing clouds.13 mph74%30.21 "Hg15 mi
8:30 AM21 °FPassing clouds.10 mph74%30.23 "Hg15 mi
6:30 AM18 °FPassing clouds.12 mph79%30.24 "Hg15 mi
5:30 AM19 °FPassing clouds.18 mph73%30.24 "Hg15 mi
4:30 AM18 °FPassing clouds.20 mph79%30.22 "Hg15 mi
3:30 AM18 °FClear.22 mph73%30.22 "Hg15 mi
2:30 AM18 °FPassing clouds.20 mph68%30.23 "Hg15 mi
1:30 AM16 °FPassing clouds.7 mph73%30.23 "Hg15 mi
12:30 AM16 °FPassing clouds.17 mph73%30.22 "Hg15 mi
11:30 PM
Mon, Nov 30
18 °FPassing clouds.10 mph68%30.23 "Hg15 mi
10:30 PM18 °FPassing clouds.17 mph68%30.22 "Hg15 mi
9:30 PM18 °FPassing clouds.26 mph68%30.21 "Hg15 mi
8:30 PM18 °FPassing clouds.18 mph68%30.20 "Hg15 mi
7:30 PM19 °FPassing clouds.20 mph68%30.19 "Hg15 mi
6:30 PM19 °FLow level haze.18 mph68%30.18 "Hg15 mi
5:30 PM19 °FPassing clouds.18 mph73%30.16 "Hg15 mi
4:30 PM21 °FPassing clouds.21 mph68%30.14 "Hg15 mi
3:30 PM19 °FPartly sunny.23 mph79%30.12 "Hg15 mi
2:30 PM19 °FPartly sunny.21 mph73%30.09 "Hg15 mi
1:30 PM18 °FPartly sunny.21 mph73%30.07 "Hg15 mi
Weather by CustomWeather, © 2015

See weather overviewHow to use our weather pages